Regional Weather Roundup
Issued by NWS

Home | Current Version | Previous Version | Text Only | Print | Product List | Glossary Off
Versions: 1 2 3 4 5 6 7 8 9 10 11 12 13 14 15 16 17 18 19 20 21 22 23 24 25 26 27 28 29 30 31 32 33 34 35 36 37 38 39 40 41 42 43 44 45 46 47 48 49 50

000
ASUS45 KPSR 282300
RWRAZ

ARIZONA HOURLY REGIONAL WEATHER ROUNDUP
NATIONAL WEATHER SERVICE PHOENIX AZ
400 PM MST THU MAY 28 2015

NOTE: FAIR INDICATES FEW OR NO CLOUDS BELOW 12,000 FEET WITH NO
SIGNIFICANT WEATHER AND/OR OBSTRUCTIONS TO VISIBILITY.

AZZ001>003-036-290000-
NORTHWEST ARIZONA

CITY           SKY/WX    TMP DP  RH WIND       PRES   REMARKS
KINGMAN        SUNNY     90  23   9 SW14      29.98F
$$

AZZ004>008-015-016-018-290000-
NORTH CENTRAL ARIZONA

CITY           SKY/WX    TMP DP  RH WIND       PRES   REMARKS
GRAND CANYON   SUNNY     75  24  15 VRB5G20   30.16F
WILLIAMS       SUNNY     73  10   9 NW9G17    30.24F
PRESCOTT       SUNNY     81  19  10 W12G22    30.08F
FLAGSTAFF      NOT AVBL
PAYSON         SUNNY     82  25  12 W13       30.10F
PAGE           MOSUNNY   85  35  16 N12       29.99F
$$

AZZ009>014-017-290000-
NORTHEAST ARIZONA

CITY           SKY/WX    TMP DP  RH WIND       PRES   REMARKS
WINSLOW        NOT AVBL
SAINT JOHNS    SUNNY     82  16   8 NW8G20    30.05F
WINDOW ROCK    MOSUNNY   75  24  15 W10G20    30.13F
$$

AZZ023-290000-
GREATER PHOENIX AREA

CITY           SKY/WX    TMP DP  RH WIND       PRES   REMARKS
PHOENIX        MOSUNNY   98  31   9 W12       29.82F
GLENDALE       MOSUNNY   99  27   8 S13       29.85F
LUKE AFB       SUNNY     97  32  10 SW8       29.82F
DEER VALLEY    SUNNY     93  26   9 S7        29.85F
SCOTTSDALE     SUNNY     95  25   8 NW6       29.87F
MESA-FALCON    SUNNY     97  25   7 S10       29.85F
MESA-GATEWAY   SUNNY     93  32  11 NW5       29.87F
CHANDLER       MOSUNNY   95  28   9 S7        29.84F
$$

AZZ027-028-290000-
SOUTHWEST MARICOPA COUNTY AND PINAL COUNTY

CITY           SKY/WX    TMP DP  RH WIND       PRES   REMARKS
CASA GRANDE    SUNNY     95  34  11 CALM      29.84F
$$

AZZ503-504-507>509-290000-
SOUTHEAST ARIZONA

CITY           SKY/WX    TMP DP  RH WIND       PRES   REMARKS
TUCSON         SUNNY     96  23   7 MISG      29.91F
DAVIS-MONTHAN  SUNNY     94  22   7 VRB3      29.89F
RYAN FIELD       N/A     99  30   9 NW8G18    29.89F
NOGALES        SUNNY     91  24   9 W9G18     29.99F
SIERRA VISTA   SUNNY     88  15   6 S5G24     30.04F
SAFFORD        PTSUNNY   94  22   7 VRB5      29.88F
$$

AZZ020-021-025-026-031-290000-
SOUTHWEST ARIZONA

CITY           SKY/WX    TMP DP  RH WIND       PRES   REMARKS
YUMA           NOT AVBL
$$

CAZ031-033-041-043-047-048-061-290000-
SOUTHERN CALIFORNIA

CITY           SKY/WX    TMP DP  RH WIND       PRES   REMARKS
DOWNTOWN L.A.  SUNNY     70  56  61 CALM      29.92F
L.A. AIRPORT   MOSUNNY   64  56  75 W9        29.94F
SAN DIEGO      MOSUNNY   68  54  60 NW9       29.96S
BURBANK        SUNNY     78  55  44 S9        29.90F
ONTARIO        MOSUNNY   85  52  32 SW10      29.91F
RIVERSIDE      SUNNY     85  53  33 W9        29.90F
PALM SPRINGS   SUNNY     99  34  10 E8        29.82F
EL CENTRO NAS  MOSUNNY   97  40  14 VRB7      29.80F
IMPERIAL       SUNNY     97  39  13 SE9       29.78F
BLYTHE         SUNNY     99  24   7 S8        29.80F
$$

NVZ020-UTZ003-290000-
SOUTHERN NEVADA-UTAH

CITY           SKY/WX    TMP DP  RH WIND       PRES   REMARKS
LAS VEGAS      NOT AVBL
SALT LAKE CITY PTSUNNY   71  43  36 N15       30.09S
$$

NMZ009-TXZ055-290000-
NEW MEXICO-WEST TEXAS

CITY           SKY/WX    TMP DP  RH WIND       PRES   REMARKS
ALBUQUERQUE    MOSUNNY   84  21  10 W16G26    29.98F
EL PASO        MOSUNNY   94  13   5 W21G29    29.91F
$$


........................KEY........................
SKY/WX - SKY CONDITION/WEATHER
TMP    - TEMPERATURE IN FAHRENHEIT
DP     - DEW POINT IN FAHRENHEIT
RH     - RELATIVE HUMIDITY IN PERCENT
WIND   - DIRECTION AND SPEED IN MILES PER HOUR (MPH)
VRB    - VARIABLE WIND DIRECTION
PRES   - MEAN SEA LEVEL PRESSURE IN INCHES OF MERCURY
         F - FALLING PRESSURE   R - RISING PRESSURE
         S - STEADY PRESSURE
VSB    - VISIBILITY IN MILES
HX     - HEAT INDEX IN FAHRENHEIT
WCI    - WIND CHILL INDEX IN FAHRENHEIT
TC     - TEMPERATURE IN CELSIUS WHICH IS ALSO KNOWN AS
         TEMPERATURE IN CENTIGRADE
AFB    - AIR FORCE BASE
         LUKE AFB IS LUKE AIR FORCE BASE
         DAVIS-MONTHAN IS DAVIS-MONTHAN AIR FORCE BASE
NAS    - NAVAL AIR STATION
         EL CENTRO NAS IS EL CENTRO NAVAL AIR STATION
N/A    - NOT AVAILABLE




USA.gov is the U.S. government's official web portal to all federal, state and local government web resources and services.